Home > Weather > Bunbury > Past weeks

Flag for Australia Past Weather in Bunbury, Western Australia, Australia — Yesterday and Last 2 Weeks

Now
46 °F

Cool.


Feels Like: 42 °F
Forecast: 50 / 64 °F
Wind: 8 mph from East

Location: Bunbury

Current Time: Aug 25, 2016 at 5:51:25 AM

Latest Report: Aug 25, 2016 at 5:00 AM


Visibility: N/A

Pressure: 30.26 "Hg

Humidity: 82%

Dew Point: 40 °F

Location of BunburyLocation

Past Weather in Bunbury — Graph

°F

Bunbury Temperature Yesterday

Maximum temperature yesterday: 62 °F (at 3:00 PM)
Minimum temperature yesterday: 36 °F (at 3:00 AM)
Average temperature yesterday: 48 °F

High & Low Weather Summary for the Past Weeks

 TemperatureHumidityPressure
High63 °F (Aug 14, 12:00 PM)96% (Aug 12, 12:00 AM)30.35 "Hg (Aug 12, 12:00 AM)
Low36 °F (Aug 24, 3:00 AM)44% (Aug 24, 3:00 PM)29.50 "Hg (Aug 17, 11:00 AM)
Average53 °F79%30.11 "Hg
* Reported Aug 10 3:00 AM — Aug 25 3:00 AM, Bunbury, Weather by CustomWeather, © 2016

Note: Actual official high and low records may vary slightly from our data, if they occured in-between our weather recording intervals... More about our weather records

Advertising

Bunbury Weather History for the Previous 24 Hours

Scroll right to see more
 ConditionsComfort  
Time TempWeatherWind HumidityBarometerVisibility
3:00 AM
Thu, Aug 25
42 °FQuite cool.5 mph90%30.27 "HgN/A
2:00 AM40 °FChilly.2 mph91%30.28 "HgN/A
12:00 AM41 °FQuite cool.2 mph89%30.30 "HgN/A
11:00 PM
Wed, Aug 24
42 °FQuite cool.2 mph86%30.31 "HgN/A
9:00 PM46 °FCool.3 mph75%30.31 "HgN/A
8:00 PM49 °FCool.3 mph71%30.30 "HgN/A
6:00 PM55 °FCool.5 mph60%30.28 "HgN/A
5:00 PM60 °FRefreshingly cool.7 mph48%30.26 "HgN/A
3:00 PM62 °FRefreshingly cool.7 mph44%30.26 "HgN/A
2:00 PM61 °FRefreshingly cool.7 mph45%30.27 "HgN/A
12:00 PM58 °FRefreshingly cool.9 mph48%30.31 "HgN/A
11:00 AM56 °FRefreshingly cool.9 mph52%30.34 "HgN/A
9:00 AM50 °FCool.7 mph68%30.35 "HgN/A
8:00 AM42 °FQuite cool.2 mph86%30.33 "HgN/A
6:00 AM36 °FChilly.3 mph90%30.31 "HgN/A
5:00 AM36 °FChilly.2 mph91%30.30 "HgN/A
Weather by CustomWeather, © 2016

See weather overviewHow to use our weather pages